Regional Weather Roundup
Issued by NWS Green Bay, WI

Home | Current Version | Previous Version | Graphics & Text | Print | Product List | Glossary Off
Versions: 1 2 3 4 5 6 7 8 9 10 11 12 13 14 15 16 17 18 19 20 21 22 23 24 25 26 27 28 29 30 31 32 33 34 35 36 37 38 39 40 41 42 43 44 45 46 47 48 49 50

000
ASUS43 KGRB 182100
RWRGRB

NORTH-CENTRAL AND NORTHEAST WISCONSIN REGIONAL WEATHER ROUNDUP
NATIONAL WEATHER SERVICE GREEN BAY WI
300 PM CST SAT NOV 18 2017

WIZ005-009-010>012-018-019-182200-
NORTH CENTRAL WISCONSIN

CITY           SKY/WX    TMP DP  RH WIND       PRES   REMARKS
IRONWOOD       CLOUDY   N/A N/A N/A NW12      29.74R
MANITOWISH WTR NOT AVBL
ARBOR VITAE    NOT AVBL
EAGLE RIVER    CLOUDY    31  29  94 NW10      29.66S
LAND O LAKES   NOT AVBL
RHINELANDER    CLOUDY    31  28  89 N8G17     29.67S
PHILLIPS       CLOUDY    29  26  88 NW10G16   29.71R
ANTIGO         NOT AVBL
TOMAHAWK       NOT AVBL
MERRILL        CLOUDY    34  28  80 NW9       29.69R
$$

WIZ013-073-182200-
NORTHEAST WISCONSIN

CITY           SKY/WX    TMP DP  RH WIND       PRES   REMARKS
IRON MOUNTAIN  CLOUDY    34  27  75 NW13      29.61S
MARINETTE      NOT AVBL
$$

WIZ017-030-035>037-045-182200-
CENTRAL WISCONSIN

CITY           SKY/WX    TMP DP  RH WIND       PRES   REMARKS
MEDFORD        NOT AVBL
WAUSAU         CLOUDY    35  27  72 NW14G22   29.66R
MOSINEE        CLOUDY    36  30  80 N13       29.67S
MARSHFIELD     CLOUDY    36  28  73 NW20      29.67S
WISC RAPIDS    MOSUNNY   39  28  64 N14G24    29.68S
STEVENS POINT  NOT AVBL
WAUPACA        NOT AVBL
SHAWANO        CLOUDY    39  31  74 NW10      29.64R
CLINTONVILLE   NOT AVBL
WAUTOMA        CLOUDY    38  29  70 NW15G26   29.65R
$$

WIZ038-039-048-051-182200-
FOX VALLEY

CITY           SKY/WX    TMP DP  RH WIND       PRES   REMARKS
NWS GREEN BAY  CLOUDY    38  31  76 N14       29.62R
APPLETON       CLOUDY    37  28  70 N12G18    29.60S
OSHKOSH        CLOUDY    38  31  76 N13       29.61R
FOND DU LAC    CLOUDY    38  30  73 N13G23    29.61R
$$

WIZ022-050-052-182200-
EAST CENTRAL WISCONSIN

CITY           SKY/WX    TMP DP  RH WIND       PRES   REMARKS
EPHRAIM        NOT AVBL
WASHINGTON ISL NOT AVBL
STURGEON BAY   CLOUDY    39  32  76 N20G30    29.58R
MANITOWOC      CLOUDY    39  32  76 NW15G23   29.58R
SHEBOYGAN      CLOUDY    38  33  82 NW18G28   29.57R
$$

LMZ563-521-522-541>543-182200-
LAKESHORE

STATION/POSITION TIME  TEMP    WIND        PRES    VSBY  WAVE
                       AIR SEA DIR/SP/G                  HT/PER
                 (UTC) (F)     (DEG/KT/KT) (MB)    (MI)  (FT/S)
SHEBOYGAN LKSHOR 2000   39     330/ 19/ 25 1001.2R
NORTHPORT PIER   2040   41     340/ 26/ 30 1001.4S
N MID LAKE BUOY  1950   42 48  330/ 23/ 29 1000.5F         4/ 5
SISTER BAY LKSHO 2019   41     340/ 26/ 32   N/A
$$




USA.gov is the U.S. government's official web portal to all federal, state and local government web resources and services.